Home > Weather > Saint-Pierre > Past weeks

Flag for Saint Pierre and Miquelon Past Weather in Saint-Pierre, Saint Pierre and Miquelon — Yesterday and Last 2 Weeks

Now
59 °F

Fog.


Feels Like: 59 °F
Forecast: 59 / 63 °F
Wind: 5 mph from East

Location: Saint-Pierre

Current Time: Jul 27, 2016 at 7:45:26 AM

Latest Report: Jul 27, 2016 at 7:00 AM


Visibility: 2 mi

Pressure: 29.92 "Hg

Humidity: 100%

Dew Point: 59 °F

Location of Saint-PierreLocation

Past Weather in Saint-Pierre — Graph

°F

Saint-Pierre Temperature Yesterday

Maximum temperature yesterday: 61 °F (at 1:00 PM)
Minimum temperature yesterday: 55 °F (at 6:00 AM)
Average temperature yesterday: 59 °F

High & Low Weather Summary for the Past Weeks

 TemperatureHumidityPressure
High66 °F (Jul 21, 4:00 PM)100% (Jul 14, 6:00 AM)30.15 "Hg (Jul 14, 6:00 AM)
Low48 °F (Jul 13, 6:00 AM)63% (Jul 12, 8:00 PM)29.50 "Hg (Jul 12, 6:00 AM)
Average59 °F91%29.91 "Hg
* Reported Jul 12 6:00 AM — Jul 27 6:00 AM, Saint-Pierre, Weather by CustomWeather, © 2016

Note: Actual official high and low records may vary slightly from our data, if they occured in-between our weather recording intervals... More about our weather records

Advertising

Saint-Pierre Weather History for the Previous 24 Hours

Scroll right to see more
 ConditionsComfort  
Time TempWeatherWind HumidityBarometerVisibility
6:00 AM
Wed, Jul 27
61 °FFog.3 mph94%29.89 "Hg3 mi
11:00 PM
Tue, Jul 26
59 °FLight rain. Fog.10 mph100%29.95 "Hg1 mi
10:00 PM59 °FLight rain. Fog.6 mph94%29.95 "Hg1 mi
9:00 PM59 °FFog.6 mph100%29.95 "Hg1 mi
8:00 PM59 °FFog.6 mph94%29.92 "Hg1 mi
7:00 PM59 °FFog.8 mph94%29.95 "Hg1 mi
6:00 PM59 °FFog.9 mph94%29.92 "Hg1 mi
4:00 PM59 °FFog.7 mph94%29.92 "Hg1 mi
3:00 PM61 °FFog.7 mph94%29.92 "Hg0 mi
2:00 PM61 °FFog.5 mph94%29.95 "Hg0 mi
1:00 PM61 °FFog.3 mph94%29.95 "Hg0 mi
12:00 PM59 °FFog.7 mph94%29.95 "Hg1 mi
11:00 AM57 °FFog.7 mph100%29.95 "Hg0 mi
10:00 AM59 °FFog.3 mph94%29.95 "Hg0 mi
9:00 AM59 °FFog.3 mph94%29.92 "Hg0 mi
8:00 AM57 °FFog.5 mph100%29.95 "Hg0 mi
7:00 AM55 °FFog.6 mph100%29.92 "Hg1 mi
Weather by CustomWeather, © 2016

See weather overviewHow to use our weather pages